| time (UTC) | temp F | wind direction | speed knots | gust knots | rain 1hr in | rain 24hr in | rain mn in | humidity % | barometer mb |
| 20260506123105 | 60 | 189 | 7.8 | 17.4 | 0.02 | 0.04 | 0.04 | 84 | 1009.3 |
| 20260506121605 | 60 | 179 | 8.7 | 19.1 | 0.03 | 0.04 | 0.04 | 84 | 1009.5 |
| 20260506121104 | 60 | 205 | 8.7 | 17.4 | 0.04 | 0.04 | 0.04 | 83 | 1009.6 |
| 20260506120605 | 60 | 178 | 8.7 | 19.1 | 0.04 | 0.04 | 0.04 | 83 | 1009.5 |
| 20260506120105 | 60 | 187 | 6.1 | 18.2 | 0.03 | 0.03 | 0.03 | 83 | 1009.5 |
| 20260506115605 | 60 | 185 | 6.1 | 15.6 | 0.03 | 0.03 | 0.03 | 82 | 1009.6 |
| 20260506115105 | 60 | 185 | 7.8 | 17.4 | 0.03 | 0.03 | 0.03 | 82 | 1009.7 |
| 20260506114105 | 60 | 188 | 7.8 | 13.0 | 0.02 | 0.02 | 0.02 | 81 | 1009.6 |
| 20260506112605 | 61 | 201 | 7.0 | 13.9 | 0.02 | 0.02 | 0.02 | 79 | 1009.9 |
| 20260506112105 | 61 | 197 | 5.2 | 11.3 | 0.01 | 0.01 | 0.01 | 78 | 1009.8 |
| 20260506110604 | 61 | 198 | 5.2 | 12.2 | 0.00 | 0.00 | 0.00 | 76 | 1009.6 |
| 20260506110105 | 62 | 190 | 5.2 | 11.3 | 0.00 | 0.00 | 0.00 | 75 | 1009.5 |
| 20260506103605 | 63 | 185 | 8.7 | 13.9 | 0.00 | 0.00 | 0.00 | 67 | 1008.9 |
| 20260506102604 | 63 | 189 | 7.8 | 15.6 | 0.00 | 0.00 | 0.00 | 67 | 1008.7 |
| 20260506102105 | 64 | 181 | 9.6 | 17.4 | 0.00 | 0.00 | 0.00 | 66 | 1008.7 |
| 20260506101605 | 64 | 200 | 6.1 | 14.8 | 0.00 | 0.00 | 0.00 | 65 | 1008.6 |
| 20260506094604 | 65 | 185 | 9.6 | 17.4 | 0.00 | 0.00 | 0.00 | 61 | 1008.4 |
| 20260506094105 | 65 | 194 | 8.7 | 15.6 | 0.00 | 0.00 | 0.00 | 61 | 1008.4 |
| 20260506092604 | 65 | 199 | 7.8 | 13.0 | 0.00 | 0.00 | 0.00 | 60 | 1008.5 |
| 20260506092105 | 65 | 207 | 5.2 | 13.9 | 0.00 | 0.00 | 0.00 | 60 | 1008.5 |
| 20260506091605 | 65 | 190 | 6.1 | 12.2 | 0.00 | 0.00 | 0.00 | 59 | 1008.5 |
| 20260506091105 | 65 | 202 | 5.2 | 10.4 | 0.00 | 0.00 | 0.00 | 59 | 1008.5 |
| 20260506090604 | 65 | 189 | 6.1 | 14.8 | 0.00 | 0.00 | 0.00 | 59 | 1008.5 |
| 20260506090105 | 65 | 191 | 6.1 | 13.9 | 0.00 | 0.00 | 0.00 | 59 | 1008.5 |
| 20260506085604 | 65 | 190 | 6.1 | 11.3 | 0.00 | 0.00 | 0.00 | 58 | 1008.6 |
| 20260506084104 | 65 | 227 | 6.1 | 11.3 | 0.00 | 0.00 | 0.00 | 57 | 1008.8 |
| 20260506083105 | 65 | 192 | 6.1 | 15.6 | 0.00 | 0.00 | 0.00 | 57 | 1008.8 |
| 20260506081605 | 65 | 218 | 7.8 | 14.8 | 0.00 | 0.00 | 0.00 | 57 | 1008.9 |
| 20260506081105 | 65 | 207 | 6.1 | 17.4 | 0.00 | 0.00 | 0.00 | 57 | 1008.8 |
| 20260506080605 | 66 | 202 | 6.1 | 13.9 | 0.00 | 0.00 | 0.00 | 57 | 1008.8 |
| 20260506072604 | 66 | 197 | 9.6 | 21.7 | 0.00 | 0.00 | 0.00 | 55 | 1008.7 |
| 20260506072104 | 66 | 184 | 7.0 | 20.0 | 0.00 | 0.00 | 0.00 | 54 | 1008.9 |
| 20260506071104 | 66 | 196 | 7.8 | 20.0 | 0.00 | 0.00 | 0.00 | 54 | 1009.0 |
| 20260506070104 | 66 | 199 | 8.7 | 20.9 | 0.00 | 0.00 | 0.00 | 53 | 1009.1 |
| 20260506062105 | 67 | 179 | 7.8 | 17.4 | 0.00 | 0.00 | 0.00 | 49 | 1009.5 |
| 20260506061604 | 67 | 202 | 9.6 | 14.8 | 0.00 | 0.00 | 0.00 | 49 | 1009.6 |
| 20260506060105 | 67 | 201 | 4.3 | 20.0 | 0.00 | 0.00 | 0.00 | 48 | 1009.8 |
| 20260506050604 | 67 | 186 | 5.2 | 12.2 | 0.00 | 0.00 | 0.00 | 45 | 1010.4 |
| 20260506045105 | 67 | 182 | 5.2 | 10.4 | 0.00 | 0.00 | 0.00 | 45 | 1010.5 |
| 20260506044604 | 67 | 184 | 6.1 | 11.3 | 0.00 | 0.00 | 0.00 | 45 | 1010.4 |
| 20260506043104 | 68 | 193 | 6.1 | 15.6 | 0.00 | 0.00 | 0.00 | 43 | 1010.5 |
| 20260506042104 | 68 | 186 | 7.8 | 15.6 | 0.00 | 0.00 | 0.00 | 42 | 1010.5 |
| 20260506041109 | 68 | 180 | 7.0 | 12.2 | 0.00 | 0.00 | 0.00 | 42 | 1010.4 |
| 20260506040604 | 68 | 195 | 6.1 | 11.3 | 0.00 | 0.00 | 0.00 | 41 | 1010.4 |
| 20260506040104 | 69 | 192 | 5.2 | 14.8 | 0.00 | 0.00 | 0.00 | 41 | 1010.4 |
| 20260506035605 | 69 | 193 | 6.1 | 13.9 | 0.00 | 0.00 | 0.00 | 40 | 1010.4 |
| 20260506035104 | 69 | 180 | 5.2 | 10.4 | 0.00 | 0.00 | 0.00 | 40 | 1010.4 |
| 20260506034104 | 69 | 183 | 5.2 | 10.4 | 0.00 | 0.00 | 0.00 | 39 | 1010.3 |
| 20260506031605 | 69 | 192 | 7.0 | 17.4 | 0.00 | 0.00 | 0.00 | 38 | 1010.3 |
| 20260506031105 | 70 | 181 | 6.1 | 12.2 | 0.00 | 0.00 | 0.00 | 38 | 1010.2 |
| 20260506030604 | 70 | 196 | 7.0 | 13.0 | 0.00 | 0.00 | 0.00 | 37 | 1010.2 |
| 20260506030104 | 70 | 196 | 4.3 | 10.4 | 0.00 | 0.00 | 0.00 | 36 | 1010.2 |
| 20260506024604 | 71 | 198 | 3.5 | 8.7 | 0.00 | 0.00 | 0.00 | 34 | 1010.4 |
| 20260506024105 | 72 | 196 | 4.3 | 10.4 | 0.00 | 0.00 | 0.00 | 33 | 1010.4 |
| 20260506023104 | 72 | 204 | 4.3 | 10.4 | 0.00 | 0.00 | 0.00 | 33 | 1010.4 |
| 20260506021606 | 72 | 221 | 4.3 | 11.3 | 0.00 | 0.00 | 0.00 | 32 | 1010.4 |
| 20260506020106 | 72 | 232 | 4.3 | 8.7 | 0.00 | 0.00 | 0.00 | 32 | 1010.4 |
| 20260506014606 | 72 | 226 | 4.3 | 10.4 | 0.00 | 0.00 | 0.00 | 31 | 1010.4 |
| 20260506012606 | 72 | 227 | 3.5 | 10.4 | 0.00 | 0.00 | 0.00 | 32 | 1010.1 |
| 20260506010606 | 73 | 208 | 5.2 | 10.4 | 0.00 | 0.00 | 0.00 | 30 | 1009.9 |
| 20260506005606 | 74 | 220 | 4.3 | 10.4 | 0.00 | 0.00 | 0.00 | 30 | 1009.8 |
| 20260506004106 | 74 | 204 | 7.0 | 18.2 | 0.00 | 0.00 | 0.00 | 30 | 1009.6 |
| 20260506002105 | 74 | 207 | 6.1 | 11.3 | 0.00 | 0.00 | 0.00 | 31 | 1009.3 |
| 20260506001606 | 74 | 209 | 4.3 | 7.8 | 0.00 | 0.00 | 0.00 | 31 | 1009.3 |
| 20260506001106 | 74 | 198 | 4.3 | 7.8 | 0.00 | 0.00 | 0.00 | 32 | 1009.2 |
| 20260506000606 | 74 | 198 | 3.5 | 8.7 | 0.00 | 0.00 | 0.00 | 32 | 1009.2 |
| 20260505235105 | 75 | 217 | 5.2 | 11.3 | 0.00 | 0.00 | 0.00 | 31 | 1009.1 |
| 20260505234106 | 76 | 201 | 6.1 | 13.0 | 0.00 | 0.00 | 0.00 | 30 | 1009.1 |
| 20260505233106 | 76 | 194 | 5.2 | 11.3 | 0.00 | 0.00 | 0.00 | 30 | 1009.2 |
| 20260505232105 | 76 | 204 | 5.2 | 13.0 | 0.00 | 0.00 | 0.00 | 31 | 1009.1 |
| 20260505231106 | 76 | 197 | 6.1 | 13.0 | 0.00 | 0.00 | 0.00 | 31 | 1009.0 |
| 20260505230106 | 77 | 195 | 5.2 | 10.4 | 0.00 | 0.00 | 0.00 | 30 | 1009.0 |
| 20260505225605 | 77 | 192 | 7.8 | 18.2 | 0.00 | 0.00 | 0.00 | 30 | 1009.0 |
| 20260505224606 | 77 | 190 | 5.2 | 15.6 | 0.00 | 0.00 | 0.00 | 31 | 1009.0 |
| 20260505223105 | 77 | 222 | 4.3 | 12.2 | 0.00 | 0.00 | 0.00 | 32 | 1009.0 |
| 20260505222106 | 77 | 212 | 6.1 | 17.4 | 0.00 | 0.00 | 0.00 | 31 | 1009.1 |
| 20260505215605 | 78 | 220 | 6.1 | 17.4 | 0.00 | 0.00 | 0.00 | 32 | 1009.1 |
| 20260505215105 | 78 | 218 | 6.1 | 12.2 | 0.00 | 0.00 | 0.00 | 31 | 1009.1 |
| 20260505214605 | 78 | 226 | 7.8 | 13.9 | 0.00 | 0.00 | 0.00 | 32 | 1009.2 |
| 20260505213105 | 79 | 217 | 6.1 | 10.4 | 0.00 | 0.00 | 0.00 | 32 | 1009.0 |
| 20260505212606 | 79 | 224 | 4.3 | 12.2 | 0.00 | 0.00 | 0.00 | 32 | 1009.0 |
| 20260505212106 | 80 | 231 | 4.3 | 10.4 | 0.00 | 0.00 | 0.00 | 32 | 1008.9 |
| 20260505210105 | 80 | 245 | 8.7 | 17.4 | 0.00 | 0.00 | 0.00 | 26 | 1008.8 |
| 20260505205105 | 81 | 221 | 7.0 | 13.0 | 0.00 | 0.00 | 0.00 | 25 | 1008.8 |
| 20260505204605 | 81 | 222 | 9.6 | 17.4 | 0.00 | 0.00 | 0.00 | 25 | 1008.9 |
| 20260505204105 | 82 | 210 | 7.8 | 14.8 | 0.00 | 0.00 | 0.00 | 25 | 1008.9 |
| 20260505203105 | 82 | 230 | 7.8 | 14.8 | 0.00 | 0.00 | 0.00 | 27 | 1009.0 |
| 20260505202606 | 81 | 221 | 6.1 | 14.8 | 0.00 | 0.00 | 0.00 | 28 | 1008.9 |
| 20260505202105 | 80 | 240 | 5.2 | 13.0 | 0.00 | 0.00 | 0.00 | 29 | 1008.9 |
| 20260505201605 | 80 | 242 | 10.4 | 18.2 | 0.00 | 0.00 | 0.00 | 27 | 1008.9 |
| 20260505201105 | 81 | 237 | 6.1 | 14.8 | 0.00 | 0.00 | 0.00 | 27 | 1008.9 |
| 20260505200605 | 81 | 251 | 10.4 | 15.6 | 0.00 | 0.00 | 0.00 | 25 | 1009.2 |
| 20260505195605 | 81 | 260 | 9.6 | 13.9 | 0.00 | 0.00 | 0.00 | 28 | 1009.2 |
| 20260505193605 | 81 | 212 | 5.2 | 10.4 | 0.00 | 0.00 | 0.00 | 34 | 1009.5 |
| 20260505192605 | 80 | 228 | 8.7 | 17.4 | 0.00 | 0.00 | 0.00 | 32 | 1009.6 |
| 20260505192105 | 81 | 229 | 6.1 | 13.9 | 0.00 | 0.00 | 0.00 | 31 | 1009.6 |
| 20260505191605 | 81 | 246 | 6.1 | 13.0 | 0.00 | 0.00 | 0.00 | 30 | 1009.7 |
| 20260505191105 | 81 | 257 | 5.2 | 12.2 | 0.00 | 0.00 | 0.00 | 32 | 1009.8 |
| 20260505184605 | 81 | 221 | 7.0 | 15.6 | 0.00 | 0.00 | 0.00 | 32 | 1010.1 |
| 20260505184105 | 81 | 223 | 6.1 | 12.2 | 0.00 | 0.00 | 0.00 | 33 | 1010.0 |
| 20260505183105 | 80 | 235 | 7.0 | 14.8 | 0.00 | 0.00 | 0.00 | 33 | 1010.2 |
| 20260505182606 | 80 | 217 | 7.8 | 13.0 | 0.00 | 0.00 | 0.00 | 33 | 1010.2 |
| 20260505182105 | 80 | 213 | 7.0 | 14.8 | 0.00 | 0.00 | 0.00 | 32 | 1010.2 |
| 20260505181605 | 80 | 224 | 6.1 | 17.4 | 0.00 | 0.00 | 0.00 | 34 | 1010.4 |
| 20260505180606 | 80 | 219 | 6.1 | 10.4 | 0.00 | 0.00 | 0.00 | 33 | 1010.4 |
| 20260505180105 | 80 | 236 | 7.0 | 12.2 | 0.00 | 0.00 | 0.00 | 33 | 1010.5 |
| 20260505175605 | 80 | 242 | 7.0 | 11.3 | 0.00 | 0.00 | 0.00 | 34 | 1010.6 |
| 20260505175105 | 80 | 231 | 7.0 | 13.0 | 0.00 | 0.00 | 0.00 | 32 | 1010.7 |
| 20260505174605 | 80 | 251 | 4.3 | 11.3 | 0.00 | 0.00 | 0.00 | 35 | 1010.6 |
| 20260505173605 | 79 | 220 | 5.2 | 11.3 | 0.00 | 0.00 | 0.00 | 35 | 1010.7 |
| 20260505173105 | 79 | 231 | 7.0 | 13.0 | 0.00 | 0.00 | 0.00 | 36 | 1010.7 |
| 20260505172605 | 79 | 228 | 7.0 | 13.0 | 0.00 | 0.00 | 0.00 | 34 | 1010.8 |
| 20260505162605 | 77 | 217 | 4.3 | 12.2 | 0.00 | 0.00 | 0.00 | 40 | 1011.5 |
| 20260505162105 | 77 | 223 | 8.7 | 13.0 | 0.00 | 0.00 | 0.00 | 38 | 1011.8 |
| 20260505161605 | 77 | 258 | 3.5 | 10.4 | 0.00 | 0.00 | 0.00 | 38 | 1011.8 |
| 20260505160105 | 77 | 258 | 4.3 | 10.4 | 0.00 | 0.00 | 0.00 | 40 | 1012.0 |
| 20260505153105 | 75 | 247 | 6.1 | 13.9 | 0.00 | 0.00 | 0.00 | 41 | 1012.1 |
| 20260505140605 | 72 | 208 | 4.3 | 10.4 | 0.00 | 0.00 | 0.00 | 46 | 1012.1 |
| 20260505124605 | 66 | 189 | 4.3 | 8.7 | 0.00 | 0.00 | 0.00 | 52 | 1012.8 |